| time (UTC) | temp C | wind direction | speed KPH | gust KPH | rain 1hr cm | rain 24hr cm | rain mn cm | humidity % | barometer mb |
| 20260505034605 | 20 | 152 | 4.8 | 9.7 | 0.00 | 0.00 | 0.00 | 70 | 1007.3 |
| 20260505034431 | 20 | 150 | 3.2 | 9.7 | 0.00 | 0.00 | 0.00 | 70 | 1007.1 |
| 20260505033531 | 20 | 156 | 3.2 | 6.4 | 0.00 | 0.00 | 0.00 | 70 | 1007.3 |
| 20260505033003 | 20 | 159 | 0.0 | 6.4 | 0.00 | 0.00 | 0.00 | 70 | 1007.5 |
| 20260505032631 | 20 | 155 | 1.6 | 6.4 | 0.00 | 0.00 | 0.00 | 70 | 1007.3 |
| 20260505031731 | 20 | 163 | 1.6 | 8.0 | 0.00 | 0.00 | 0.00 | 70 | 1007.2 |
| 20260505031619 | 20 | 189 | 3.2 | 8.0 | 0.00 | 0.00 | 0.00 | 70 | 1007.4 |
| 20260505030830 | 20 | 164 | 0.0 | 4.8 | 0.00 | 0.00 | 0.00 | 70 | 1007.1 |
| 20260505030005 | 20 | 165 | 0.0 | 3.2 | 0.00 | 0.00 | 0.00 | 69 | 1007.2 |
| 20260505025931 | 20 | 164 | 1.6 | 4.8 | 0.00 | 0.00 | 0.00 | 69 | 1007.0 |
| 20260505025031 | 20 | 164 | 1.6 | 4.8 | 0.00 | 0.00 | 0.00 | 69 | 1006.9 |
| 20260505024510 | 20 | 165 | 0.0 | 4.8 | 0.00 | 0.00 | 0.00 | 69 | 1007.2 |
| 20260505024131 | 20 | 164 | 0.0 | 4.8 | 0.00 | 0.00 | 0.00 | 69 | 1007.0 |
| 20260505023104 | 20 | 165 | 0.0 | 0.0 | 0.00 | 0.00 | 0.00 | 67 | 1007.2 |
| 20260505022331 | 21 | 164 | 0.0 | 3.2 | 0.00 | 0.00 | 0.00 | 67 | 1006.9 |
| 20260505021509 | 20 | 165 | 1.6 | 4.8 | 0.00 | 0.00 | 0.00 | 67 | 1006.9 |
| 20260505021431 | 21 | 164 | 3.2 | 6.4 | 0.00 | 0.00 | 0.00 | 67 | 1006.7 |
| 20260505020530 | 21 | 164 | 1.6 | 6.4 | 0.00 | 0.00 | 0.00 | 66 | 1006.5 |
| 20260505020004 | 21 | 165 | 0.0 | 3.2 | 0.00 | 0.00 | 0.00 | 65 | 1006.6 |
| 20260505015630 | 21 | 164 | 0.0 | 3.2 | 0.00 | 0.00 | 0.00 | 64 | 1006.5 |
| 20260505014730 | 22 | 164 | 3.2 | 6.4 | 0.00 | 0.00 | 0.00 | 64 | 1006.3 |
| 20260505014607 | 21 | 165 | 0.0 | 6.4 | 0.00 | 0.00 | 0.00 | 64 | 1006.4 |
| 20260505013830 | 22 | 164 | 1.6 | 6.4 | 0.00 | 0.00 | 0.00 | 63 | 1006.2 |
| 20260505013004 | 22 | 165 | 1.6 | 6.4 | 0.00 | 0.00 | 0.00 | 63 | 1006.6 |
| 20260505012931 | 22 | 164 | 3.2 | 6.4 | 0.00 | 0.00 | 0.00 | 63 | 1006.4 |
| 20260505012030 | 22 | 175 | 6.4 | 9.7 | 0.00 | 0.00 | 0.00 | 62 | 1006.2 |
| 20260505011507 | 22 | 172 | 4.8 | 12.9 | 0.00 | 0.00 | 0.00 | 62 | 1006.4 |
| 20260505011130 | 22 | 171 | 6.4 | 12.9 | 0.00 | 0.00 | 0.00 | 62 | 1006.2 |
| 20260505010230 | 22 | 175 | 8.0 | 11.3 | 0.00 | 0.00 | 0.00 | 61 | 1006.1 |
| 20260505010105 | 22 | 193 | 6.4 | 11.3 | 0.00 | 0.00 | 0.00 | 61 | 1006.4 |
| 20260505005331 | 23 | 175 | 8.0 | 12.9 | 0.00 | 0.00 | 0.00 | 60 | 1006.2 |
| 20260505004606 | 23 | 182 | 4.8 | 14.5 | 0.00 | 0.00 | 0.00 | 60 | 1006.3 |
| 20260505004430 | 23 | 170 | 8.0 | 12.9 | 0.00 | 0.00 | 0.00 | 59 | 1006.1 |
| 20260505003530 | 23 | 176 | 9.7 | 14.5 | 0.00 | 0.00 | 0.00 | 58 | 1006.2 |
| 20260505003004 | 23 | 205 | 6.4 | 19.3 | 0.00 | 0.00 | 0.00 | 58 | 1006.5 |
| 20260505002630 | 23 | 171 | 9.7 | 16.1 | 0.00 | 0.00 | 0.00 | 58 | 1006.2 |
| 20260505001730 | 23 | 175 | 11.3 | 17.7 | 0.00 | 0.00 | 0.00 | 58 | 1006.4 |
| 20260505001504 | 23 | 180 | 11.3 | 24.1 | 0.00 | 0.00 | 0.00 | 58 | 1006.7 |
| 20260505000830 | 23 | 169 | 11.3 | 24.1 | 0.00 | 0.00 | 0.00 | 57 | 1006.4 |
| 20260505000108 | 23 | 159 | 6.4 | 17.7 | 0.00 | 0.00 | 0.00 | 58 | 1006.7 |
| 20260504235930 | 24 | 179 | 9.7 | 17.7 | 0.00 | 0.00 | 0.00 | 58 | 1006.5 |
| 20260504235031 | 24 | 167 | 8.0 | 16.1 | 0.00 | 0.00 | 0.00 | 58 | 1006.5 |
| 20260504234605 | 24 | 174 | 8.0 | 19.3 | 0.00 | 0.00 | 0.00 | 58 | 1006.7 |
| 20260504234130 | 24 | 176 | 9.7 | 19.3 | 0.00 | 0.00 | 0.00 | 57 | 1006.6 |
| 20260504233230 | 24 | 167 | 8.0 | 19.3 | 0.00 | 0.00 | 0.00 | 56 | 1006.6 |
| 20260504233006 | 24 | 155 | 9.7 | 19.3 | 0.00 | 0.00 | 0.00 | 57 | 1006.8 |
| 20260504232330 | 25 | 173 | 9.7 | 17.7 | 0.00 | 0.00 | 0.00 | 56 | 1006.7 |
| 20260504231504 | 24 | 178 | 8.0 | 16.1 | 0.00 | 0.00 | 0.00 | 57 | 1006.9 |
| 20260504230530 | 25 | 163 | 12.9 | 22.5 | 0.00 | 0.00 | 0.00 | 56 | 1006.8 |
| 20260504230111 | 25 | 159 | 14.5 | 25.7 | 0.00 | 0.00 | 0.00 | 55 | 1007.0 |
| 20260504225630 | 25 | 165 | 14.5 | 24.1 | 0.00 | 0.00 | 0.00 | 55 | 1006.9 |
| 20260504224730 | 25 | 162 | 14.5 | 27.4 | 0.00 | 0.00 | 0.00 | 55 | 1007.1 |
| 20260504224604 | 25 | 182 | 12.9 | 27.4 | 0.00 | 0.00 | 0.00 | 54 | 1007.3 |
| 20260504223830 | 26 | 160 | 12.9 | 22.5 | 0.00 | 0.00 | 0.00 | 54 | 1007.1 |
| 20260504223104 | 25 | 161 | 11.3 | 22.5 | 0.00 | 0.00 | 0.00 | 53 | 1007.3 |
| 20260504222931 | 26 | 165 | 12.9 | 22.5 | 0.00 | 0.00 | 0.00 | 53 | 1007.2 |
| 20260504222031 | 26 | 165 | 11.3 | 25.7 | 0.00 | 0.00 | 0.00 | 55 | 1007.3 |
| 20260504221609 | 26 | 179 | 9.7 | 25.7 | 0.00 | 0.00 | 0.00 | 54 | 1007.5 |
| 20260504221131 | 26 | 171 | 11.3 | 25.7 | 0.00 | 0.00 | 0.00 | 54 | 1007.3 |
| 20260504220230 | 26 | 170 | 11.3 | 19.3 | 0.00 | 0.00 | 0.00 | 54 | 1007.5 |
| 20260504220005 | 25 | 177 | 9.7 | 20.9 | 0.00 | 0.00 | 0.00 | 54 | 1007.7 |
| 20260504215330 | 26 | 168 | 16.1 | 33.8 | 0.00 | 0.00 | 0.00 | 53 | 1007.6 |
| 20260504214606 | 26 | 196 | 11.3 | 27.4 | 0.00 | 0.00 | 0.00 | 54 | 1007.8 |
| 20260504214430 | 26 | 152 | 16.1 | 27.4 | 0.00 | 0.00 | 0.00 | 54 | 1007.6 |
| 20260504213530 | 26 | 169 | 12.9 | 25.7 | 0.00 | 0.00 | 0.00 | 50 | 1007.7 |
| 20260504213003 | 26 | 154 | 8.0 | 24.1 | 0.00 | 0.00 | 0.00 | 53 | 1008.1 |
| 20260504212630 | 26 | 169 | 11.3 | 29.0 | 0.00 | 0.00 | 0.00 | 52 | 1007.9 |
| 20260504211604 | 26 | 168 | 16.1 | 30.6 | 0.00 | 0.00 | 0.00 | 51 | 1008.3 |
| 20260504210830 | 26 | 162 | 14.5 | 25.7 | 0.00 | 0.00 | 0.00 | 52 | 1008.1 |
| 20260504210007 | 26 | 153 | 16.1 | 30.6 | 0.00 | 0.00 | 0.00 | 51 | 1008.6 |
| 20260504205930 | 26 | 169 | 16.1 | 30.6 | 0.00 | 0.00 | 0.00 | 50 | 1008.4 |
| 20260504205030 | 27 | 164 | 12.9 | 25.7 | 0.00 | 0.00 | 0.00 | 49 | 1008.7 |
| 20260504204619 | 26 | 157 | 11.3 | 22.5 | 0.00 | 0.00 | 0.00 | 53 | 1008.9 |
| 20260504204130 | 26 | 169 | 16.1 | 22.5 | 0.00 | 0.00 | 0.00 | 50 | 1008.8 |
| 20260504203106 | 26 | 174 | 16.1 | 25.7 | 0.00 | 0.00 | 0.00 | 49 | 1009.1 |
| 20260504201505 | 26 | 169 | 12.9 | 29.0 | 0.00 | 0.00 | 0.00 | 50 | 1009.4 |
| 20260504201430 | 26 | 155 | 12.9 | 29.0 | 0.00 | 0.00 | 0.00 | 50 | 1009.2 |
| 20260504200004 | 26 | 175 | 14.5 | 27.4 | 0.00 | 0.00 | 0.00 | 48 | 1009.6 |
| 20260504195630 | 26 | 170 | 12.9 | 25.7 | 0.00 | 0.00 | 0.00 | 47 | 1009.7 |
| 20260504194730 | 26 | 167 | 12.9 | 22.5 | 0.00 | 0.00 | 0.00 | 51 | 1009.8 |
| 20260504194507 | 26 | 169 | 11.3 | 22.5 | 0.00 | 0.00 | 0.00 | 53 | 1010.1 |
| 20260504193830 | 26 | 169 | 14.5 | 22.5 | 0.00 | 0.00 | 0.00 | 53 | 1010.0 |
| 20260504193005 | 26 | 153 | 11.3 | 22.5 | 0.00 | 0.00 | 0.00 | 50 | 1010.4 |
| 20260504192930 | 26 | 161 | 12.9 | 25.7 | 0.00 | 0.00 | 0.00 | 50 | 1010.2 |
| 20260504192030 | 26 | 164 | 14.5 | 32.2 | 0.00 | 0.00 | 0.00 | 48 | 1010.4 |
| 20260504191607 | 26 | 168 | 8.0 | 25.7 | 0.00 | 0.00 | 0.00 | 51 | 1010.7 |
| 20260504191130 | 26 | 173 | 12.9 | 24.1 | 0.00 | 0.00 | 0.00 | 50 | 1010.5 |
| 20260504190230 | 26 | 168 | 12.9 | 22.5 | 0.00 | 0.00 | 0.00 | 50 | 1010.7 |
| 20260504190106 | 25 | 177 | 9.7 | 22.5 | 0.00 | 0.00 | 0.00 | 51 | 1010.8 |
| 20260504185330 | 26 | 170 | 12.9 | 24.1 | 0.00 | 0.00 | 0.00 | 52 | 1010.7 |
| 20260504184603 | 25 | 153 | 14.5 | 24.1 | 0.00 | 0.00 | 0.00 | 48 | 1011.0 |
| 20260504184430 | 26 | 170 | 12.9 | 24.1 | 0.00 | 0.00 | 0.00 | 48 | 1011.0 |
| 20260504183530 | 26 | 174 | 12.9 | 27.4 | 0.00 | 0.00 | 0.00 | 49 | 1011.1 |
| 20260504183009 | 25 | 173 | 17.7 | 30.6 | 0.00 | 0.00 | 0.00 | 49 | 1011.3 |
| 20260504182630 | 26 | 174 | 11.3 | 24.1 | 0.00 | 0.00 | 0.00 | 51 | 1011.2 |
| 20260504181730 | 25 | 179 | 12.9 | 25.7 | 0.00 | 0.00 | 0.00 | 48 | 1011.4 |
| 20260504181504 | 25 | 162 | 14.5 | 25.7 | 0.00 | 0.00 | 0.00 | 48 | 1011.6 |
| 20260504180830 | 25 | 175 | 14.5 | 30.6 | 0.00 | 0.00 | 0.00 | 49 | 1011.5 |
| 20260504180006 | 25 | 169 | 16.1 | 29.0 | 0.00 | 0.00 | 0.00 | 50 | 1011.7 |
| 20260504175930 | 25 | 174 | 14.5 | 27.4 | 0.00 | 0.00 | 0.00 | 49 | 1011.5 |
| 20260504175030 | 25 | 179 | 11.3 | 22.5 | 0.00 | 0.00 | 0.00 | 50 | 1011.7 |
| 20260504174504 | 25 | 191 | 6.4 | 24.1 | 0.00 | 0.00 | 0.00 | 50 | 1012.1 |
| 20260504174130 | 25 | 176 | 12.9 | 22.5 | 0.00 | 0.00 | 0.00 | 48 | 1011.8 |
| 20260504173230 | 25 | 188 | 9.7 | 19.3 | 0.00 | 0.00 | 0.00 | 50 | 1012.0 |
| 20260504173007 | 25 | 213 | 9.7 | 22.5 | 0.00 | 0.00 | 0.00 | 48 | 1012.3 |
| 20260504172330 | 25 | 170 | 12.9 | 29.0 | 0.00 | 0.00 | 0.00 | 50 | 1012.1 |
| 20260504171510 | 25 | 167 | 9.7 | 25.7 | 0.00 | 0.00 | 0.00 | 52 | 1012.4 |
| 20260504171430 | 25 | 179 | 11.3 | 25.7 | 0.00 | 0.00 | 0.00 | 53 | 1012.2 |
| 20260504170530 | 25 | 175 | 16.1 | 30.6 | 0.00 | 0.00 | 0.00 | 51 | 1012.2 |
| 20260504170106 | 24 | 193 | 16.1 | 32.2 | 0.00 | 0.00 | 0.00 | 51 | 1012.3 |
| 20260504160230 | 23 | 182 | 8.0 | 20.9 | 0.00 | 0.00 | 0.00 | 53 | 1013.0 |
| 20260504160107 | 23 | 219 | 6.4 | 20.9 | 0.00 | 0.00 | 0.00 | 59 | 1013.1 |
| 20260504150830 | 22 | 186 | 8.0 | 22.5 | 0.00 | 0.00 | 0.00 | 57 | 1013.1 |
| 20260504150105 | 21 | 159 | 8.0 | 19.3 | 0.00 | 0.00 | 0.00 | 59 | 1013.2 |
| 20260504140530 | 19 | 177 | 8.0 | 16.1 | 0.00 | 0.00 | 0.00 | 69 | 1013.1 |
| 20260504130230 | 14 | 172 | 1.6 | 4.8 | 0.00 | 0.00 | 0.00 | 88 | 1013.2 |
| 20260504120104 | 12 | 311 | 0.0 | 3.2 | 0.00 | 0.00 | 0.00 | 88 | 1013.2 |
| 20260504110530 | 12 | 0 | 0.0 | 0.0 | 0.00 | 0.00 | 0.00 | 88 | 1012.3 |
| 20260504100230 | 12 | 0 | 0.0 | 0.0 | 0.00 | 0.00 | 0.00 | 88 | 1012.5 |
| 20260504090105 | 12 | 183 | 0.0 | 0.0 | 0.00 | 0.00 | 0.00 | 88 | 1012.9 |
| 20260504081604 | 12 | 183 | 0.0 | 0.0 | 0.00 | 0.00 | 0.00 | 86 | 1013.0 |
| 20260504081430 | 12 | 0 | 0.0 | 0.0 | 0.00 | 0.00 | 0.00 | 86 | 1012.8 |
| 20260504080530 | 13 | 0 | 0.0 | 0.0 | 0.00 | 0.00 | 0.00 | 85 | 1012.9 |
| 20260504070230 | 13 | 0 | 0.0 | 0.0 | 0.00 | 0.00 | 0.00 | 83 | 1013.7 |
| 20260504050530 | 15 | 0 | 0.0 | 0.0 | 0.00 | 0.00 | 0.00 | 81 | 1014.5 |
| 20260504050011 | 14 | 183 | 0.0 | 0.0 | 0.00 | 0.00 | 0.00 | 81 | 1014.6 |
| 20260504045630 | 15 | 0 | 0.0 | 0.0 | 0.00 | 0.00 | 0.00 | 81 | 1014.4 |
| 20260504044603 | 15 | 183 | 0.0 | 3.2 | 0.00 | 0.00 | 0.00 | 80 | 1014.6 |
| 20260504043003 | 15 | 183 | 0.0 | 3.2 | 0.00 | 0.00 | 0.00 | 79 | 1014.7 |
| 20260504042930 | 15 | 184 | 1.6 | 3.2 | 0.00 | 0.00 | 0.00 | 79 | 1014.4 |
| 20260504042030 | 15 | 184 | 1.6 | 3.2 | 0.00 | 0.00 | 0.00 | 79 | 1014.5 |
| 20260504041505 | 15 | 183 | 1.6 | 3.2 | 0.00 | 0.00 | 0.00 | 78 | 1014.8 |
| 20260504041130 | 16 | 184 | 0.0 | 1.6 | 0.00 | 0.00 | 0.00 | 77 | 1014.6 |
| 20260504040230 | 16 | 0 | 0.0 | 0.0 | 0.00 | 0.00 | 0.00 | 76 | 1014.6 |
| 20260504040103 | 16 | 183 | 0.0 | 0.0 | 0.00 | 0.00 | 0.00 | 76 | 1014.9 |
| 20260504035330 | 16 | 0 | 0.0 | 0.0 | 0.00 | 0.00 | 0.00 | 75 | 1014.6 |